This is the latest recevied weather packets stored in our database for station/object OE6ATD-13. If no packets are shown the sender has not sent any weather packets the latest 10 day(s).
| Time | Temp. | Humidity | Pressure | Rain* | Wind** | Luminosity | Snow |
|---|---|---|---|---|---|---|---|
| 1778100918 | 15° C | 74% | 1009 hPa | 0 mm | - | 0 W/m² | - |
| 1778100329 | 15° C | 73% | 1008.9 hPa | 0 mm | - | 0 W/m² | - |
| 1778099725 | 15° C | 73% | 1009 hPa | 0 mm | - | 0 W/m² | - |
| 1778099121 | 15° C | 72% | 1008.9 hPa | 0 mm | - | 0 W/m² | - |
| 1778098517 | 15.56° C | 71% | 1008.9 hPa | 0 mm | - | 0 W/m² | - |
| 1778097927 | 16.11° C | 71% | 1008.8 hPa | 0 mm | - | 0 W/m² | - |
| 1778097322 | 16.11° C | 70% | 1008.8 hPa | 0 mm | - | 0 W/m² | - |
| 1778096718 | 16.67° C | 68% | 1008.8 hPa | 0 mm | - | 0 W/m² | - |
| 1778096129 | 16.67° C | 68% | 1008.9 hPa | 0 mm | - | 0 W/m² | - |
| 1778095525 | 16.67° C | 64% | 1008.6 hPa | 0 mm | - | 0 W/m² | - |
| 1778094920 | 17.22° C | 64% | 1008.6 hPa | 0 mm | - | 0 W/m² | - |
| 1778094316 | 16.67° C | 64% | 1008.4 hPa | 0 mm | - | 0 W/m² | - |
| 1778093727 | 17.22° C | 61% | 1008.2 hPa | 0 mm | - | 0 W/m² | - |
| 1778093128 | 17.78° C | 60% | 1008.3 hPa | 0 mm | - | 0 W/m² | - |
| 1778092523 | 17.78° C | 59% | 1008 hPa | 0 mm | - | 0 W/m² | - |
| 1778091919 | 18.33° C | 59% | 1008 hPa | 0 mm | - | 0 W/m² | - |
| 1778091315 | 18.33° C | 59% | 1007.9 hPa | 0 mm | - | 0 W/m² | - |
| 1778090726 | 18.89° C | 57% | 1007.7 hPa | 0 mm | - | 4 W/m² | - |
| 1778090122 | 18.89° C | 56% | 1007.9 hPa | 0 mm | - | 8 W/m² | - |
| 1778089518 | 19.44° C | 54% | 1007.8 hPa | 0 mm | - | 17 W/m² | - |
| 1778088928 | 20° C | 54% | 1007.8 hPa | 0 mm | - | 33 W/m² | - |
| 1778088325 | 20.56° C | 53% | 1007.7 hPa | 0 mm | - | 40 W/m² | - |
| 1778087720 | 21.67° C | 51% | 1007.7 hPa | 0 mm | - | 82 W/m² | - |
| 1778087116 | 21.67° C | 52% | 1007.6 hPa | 0 mm | - | 150 W/m² | - |
| 1778086527 | 22.22° C | 52% | 1007.7 hPa | 0 mm | - | 171 W/m² | - |
* Rain latest hour (hover to see other rain measurements)
** Current wind speed in m/s (hover to see current wind gust speed)